Regional Weather Roundup
Issued by NWS Northern Indiana

Home | Current Version | Previous Version | Graphics & Text | Print | Product List | Glossary On
Versions: 1 2 3 4 5 6 7 8 9 10 11 12 13 14 15 16 17 18 19 20 21 22 23 24 25 26 27 28 29 30 31 32 33 34 35 36 37 38 39 40 41 42 43 44 45 46 47 48 49 50
000
ASUS43 KIWX 010700
RWRIWX

KIWX WEATHER ROUNDUP
NATIONAL WEATHER SERVICE NORTHERN INDIANA
300 AM EDT SAT OCT 01 2016

NOTE: "FAIR" INDICATES FEW OR NO CLOUDS BELOW 12,000 FEET WITH NO
SIGNIFICANT WEATHER AND/OR OBSTRUCTIONS TO VISIBILITY.

* THESE STATIONS ARE NOT UNDER NWS QUALITY CONTROL. THEY ALSO MAY NOT
  REPORT WEATHER SUCH AS PRECIPITATION OR FOG.

INZ001>027-010800-
NORTHERN INDIANA

CITY           SKY/WX    TMP DP  RH WIND       PRES   REMARKS
SOUTH BEND     CLOUDY    59  58  96 NE7       30.04F
GOSHEN         CLOUDY    60  57  89 NE6       30.03S
ANGOLA*          N/A     59  48  67 E8        30.03S
FORT WAYNE     TSTM      60  58  92 E5        30.01S FOG
PERU/GRISSOM   CLOUDY    59  59 100 SE1       29.99F

$$
INZ028>050-010800-
CENTRAL INDIANA

CITY           SKY/WX    TMP DP  RH WIND       PRES   REMARKS
LAFAYETTE      CLOUDY    59  59 100 E7        30.00R
KOKOMO*        CLOUDY    59  57  94 CALM      30.01F
MUNCIE*        CLOUDY    59  54  83 S3        30.01S
INDIANAPOLIS   CLOUDY    56  54  93 S3        30.00F

$$
MIZ043>046-050>051-056>058-064>065-071>073-077>080-010800-
SOUTHWEST LOWER MICHIGAN

CITY           SKY/WX    TMP DP  RH WIND       PRES   REMARKS
BATTLE CREEK   CLOUDY    60  59  96 NE9       30.06F
BENTON HARBOR  CLOUDY    61  57  87 E5        30.05S
COLDWATER*     DRIZZLE   60  60 100 NE6       30.04S
HILLSDALE*     LGT RAIN  59  57  94 NE7       30.04F
HOLLAND        CLOUDY    61  58  90 E8        30.08S
GRAND RAPIDS   CLOUDY    58  56  93 NE14      30.09S FOG
KALAMAZOO      CLOUDY    60  58  92 NE5       30.06F FOG
STURGIS*       CLOUDY    60  58  94 NE7       30.03S FOG
THREE RIVERS*  LGT RAIN  61  60  97 NE7       30.05S

$$
OHZ001>008-015>018-024>025-010800-
NORTHWEST OHIO

CITY           SKY/WX    TMP DP  RH WIND       PRES   REMARKS
DEFIANCE       CLOUDY    62  58  86 E8        30.02F
FINDLAY        CLOUDY    61  58  90 E9        30.02S
TOLEDO EXPRESS LGT RAIN  59  59 100 NE8       30.04F
TOLEDO METCALF RAIN      60  60 100 E6        30.05F FOG
LIMA           MOCLDY    59  59 100 SE6       30.01F

$$
AND FOR LAKE MICHIGAN COASTAL AND OPEN LAKE BUOY OBSERVATIONS

STATION/POSITION TEMP    WIND        PRES    VSBY  WAVE
                 AIR SEA DIR/SP/G                  HT/PER
                 (F)     (DEG/KT/KT) (MB)    (MI)  (FT/S)
CALUMET HARBOR    61      70/  7/  9 1016.9R
MICHIGAN CITY     58      40/  6/  7   N/A
BURNS HARBOR      59      90/  4/  8 1017.6S
SAINT JOSEPH      60      CALM  /  5 1018.3F
SOUTH LAKE BUOY   63 67  100/ 16/ 19 1017.4          4/ 6
4 MI NW BRIDGMAN  55 52   30/  6/  8 1017.5F         2/ 5
MICHIGAN CITY     60 64   80/  8/ 10   N/A           4/ 7

$$
&&



USA.gov is the U.S. government's official web portal to all federal, state and local government web resources and services.